Location: Horton
(50.8500°N, 1.9500°W)
Time: 07:23:31
(UTC+00:00)

Daily predictions for brighter satellites

Satellite Brightness Start Highest point End
(mag) Time Altitude Azimuth Time Altitude Azimuth Time Altitude Azimuth
Cosmos 1500 Rocket 3.5 20:11:03 10° S 20:15:21 87° ESE 20:19:43 10° N
Spot 2 Rocket 4.3 20:12:27 10° SE 20:17:06 37° ENE 20:21:45 10° N
Cosmos 2322 Rocket 4.2 20:14:06 10° N 20:17:56 18° NNE 20:21:46 10° ENE
Meteor 1-4 Rocket 3.8 20:16:16 10° N 20:19:13 24° ENE 20:22:07 10° SE
Ariane Rocket 4.2 20:14:25 10° S 20:19:15 44° W 20:24:06 10° NNW
USA 186 4.0 20:18:58 10° SW 20:20:30 16° W 20:22:03 10° NW
Resurs 1-3 3.7 20:16:13 10° SSE 20:20:37 85° WSW 20:25:02 10° NNW
CZ-2C R/B 2.6 20:18:23 10° NNE 20:23:36 88° WNW 20:28:48 10° SSW
SL-08 R/B 4.5 20:17:32 10° S 20:23:45 79° E 20:29:55 10° NNE
Terra 3.7 20:22:14 10° E 20:25:20 17° NE 20:28:25 10° NNE
Cosmos 407 Rocket 4.1 20:20:42 10° SSE 20:25:30 35° ESE 20:30:18 10° NE
USA 234 3.4 20:19:39 10° ESE 20:26:12 80° NNE 20:32:46 10° WNW
Cosmos 1666 Rocket 4.4 20:23:04 10° SSE 20:26:51 30° E 20:30:40 10° NNE
Meteor 1-27 Rocket 4.0 20:24:06 10° N 20:29:59 64° ENE 20:35:52 10° SSE
Meteor 1-10 Rocket 4.3 20:24:53 10° NNW 20:30:34 86° W 20:36:19 10° S
Cosmos 2360 Rocket 4.4 20:28:35 10° N 20:31:50 15° NNE 20:35:04 10° ENE
MetOp-B 4.3 20:26:43 10° SSE 20:31:59 62° ENE 20:37:18 10° N
BREEZE-M DEB (TANK) 4.1 20:31:00 10° WNW 20:35:45 22° SW 20:38:19 10° S
ERBS 2.6 20:33:03 10° WSW 20:36:22 69° NNW 20:39:41 10° NE
Cosmos 1805 Rocket 3.5 20:34:03 10° S 20:38:28 76° E 20:42:56 10° NNE
SPOT 5 4.0 20:35:54 10° ESE 20:39:25 25° ENE 20:42:59 10° N
Cosmos 1980 Rocket 2.5 20:36:19 10° NNW 20:41:57 56° NE 20:47:05 12° SE
SPOT 1/Viking Rocket 3.9 20:39:53 10° SE 20:44:54 51° ENE 20:49:57 10° N
SL-4 R/B 2.9 20:43:53 10° SSW 20:47:06 24° SE 20:50:10 10° E
Genesis I 3.6 20:43:41 10° NW 20:47:31 54° NE 20:50:44 14° ESE
BREEZE-M DEB (TANK) 2.3 20:45:20 10° WSW 20:47:52 57° SSE 20:53:48 10° E
ATLAS 5 CENTAUR R/B 3.3 20:45:01 10° NW 20:50:23 43° WSW 20:56:33 10° SSE
Cosmos 1140 Rocket 3.8 20:46:09 10° S 20:51:05 44° ESE 20:56:05 10° NE
Cosmos 389 Rocket 3.6 20:50:25 10° NNW 20:53:41 42° W 20:56:57 10° SSW
Cosmos 1812 3.5 20:53:02 10° NNW 20:56:47 52° W 21:00:31 10° S
Cosmos 1697 Rocket 2.9 20:52:07 10° NNW 20:57:44 72° WSW 21:03:04 11° SSE
Cosmos 1633 Rocket 3.2 20:55:44 10° S 21:00:02 53° E 21:04:22 10° NNE
Cosmos 1833 Rocket 2.6 20:54:30 10° SSW 21:00:03 67° ESE 21:05:40 10° NNE
Okean 1-7 4.5 21:02:35 10° NNE 21:06:08 24° ENE 21:08:30 15° ESE
Cosmos 1867 4.1 21:01:28 10° S 21:06:21 35° ESE 21:11:16 10° NE
CENTAUR R/B 3.8 21:04:46 15° SE 21:06:57 18° ESE 21:11:18 10° ENE
Cosmos 1707 Rocket 3.9 21:04:01 10° NNW 21:08:21 65° W 21:12:37 10° S
Resurs 01 Rocket 2.8 21:06:33 10° S 21:10:43 41° W 21:14:57 10° NNW
FALCON 9 DEB 4.1 21:09:53 10° SSW 21:12:52 27° SE 21:15:22 13° E
Landsat 7 3.9 21:08:59 12° SSE 21:13:23 83° WSW 21:18:11 10° NNW
Cosmos 1441 Rocket 4.1 21:10:59 10° SSW 21:14:41 50° WNW 21:18:22 10° N
deb Kosmos-1763 4.3 21:14:15 12° S 21:17:21 46° ESE 21:20:53 10° NE
Cosmos 192 4.3 21:14:34 10° NNW 21:19:31 81° ENE 21:22:57 20° SSE
ATLAS 5 CENTAUR R/B 3.0 21:17:40 10° NNW 21:19:42 25° NE 21:23:23 10° E
Cosmos 676 Rocket 4.3 21:14:51 10° S 21:19:58 50° ESE 21:25:08 10° NNE
IGS 5A 3.7 21:17:35 13° S 21:21:11 66° WSW 21:25:19 10° NNW
Meteor 1-25 Rocket 4.4 21:17:53 14° SSE 21:22:31 51° E 21:27:57 10° NNE
Cosmos 1470 Rocket 3.8 21:19:30 17° SSE 21:22:45 52° E 21:27:02 10° NNE
Cosmos 614 Rocket 4.4 21:18:29 10° SW 21:23:37 65° WNW 21:28:49 10° NNE
Cosmos 1934 Rocket 4.0 21:18:26 10° S 21:24:48 87° E 21:31:13 10° N
Aureole 1 Rocket 4.4 21:19:03 10° S 21:25:51 68° ESE 21:34:05 10° NNE
GP-B 3.1 21:22:21 10° N 21:26:50 88° W 21:30:41 14° S
SWAS 4.4 21:23:15 10° SSW 21:27:34 87° ESE 21:31:57 10° NNE
NOSS 3-2 (A) 3.7 21:26:59 10° S 21:32:19 42° ESE 21:38:21 10° NE
USA 267 3.2 21:25:54 10° ENE 21:32:30 82° SSE 21:39:03 10° SW
Cosmos 921 Rocket 2.9 21:28:17 10° NNW 21:32:33 76° ENE 21:34:51 26° SSE
Cosmos 1862 Rocket 3.8 21:30:26 10° NNW 21:34:55 70° W 21:38:11 18° S
NOSS 3-2 (C) 4.1 21:35:51 21° SSE 21:38:26 30° ESE 21:43:53 10° ENE
COSMOS 2406 4.1 21:32:58 10° SW 21:38:36 53° NW 21:44:13 10° NNE
ERS-1 Rocket 3.0 21:36:08 20° SSE 21:39:37 86° WSW 21:44:41 10° NNW
OPS 6432 4.4 21:36:02 10° SSW 21:40:02 61° SE 21:43:12 10° NE
SAR-Lupe-2 3.6 21:36:51 10° NNE 21:40:24 57° ESE 21:41:55 30° SSE
SL-16 R/B 2.7 21:35:15 10° NNW 21:40:49 51° NE 21:44:17 22° ESE
Lacrosse 5 2.0 21:37:00 10° WNW 21:42:06 72° NNE 21:45:31 21° ESE
Cosmos 468 Rocket 4.1 21:37:26 10° NNW 21:42:46 67° ENE 21:45:45 26° SE
NOSS 2 (A) 4.1 21:48:00 10° NW 21:50:39 62° SW 21:50:43 62° SW
Cosmos 2219 Rocket 4.3 21:47:14 10° N 21:51:12 19° NNE 21:55:09 10° ENE
Cosmos 1954 Rocket 4.0 21:47:55 10° SSW 21:53:15 86° ESE 21:58:38 10° NNE
Cosmos 2082 Rocket 2.2 21:47:36 10° SSW 21:53:18 84° WNW 21:59:02 10° NNE
Meteor 1-4 Rocket 4.3 21:51:16 10° NW 21:54:12 26° W 21:56:38 13° SW
Cosmos 2278 4.5 21:49:26 10° NW 21:54:51 45° WSW 21:58:39 19° S
Cosmos 1184 Rocket 3.5 21:53:56 17° SSW 21:56:14 52° WNW 21:59:30 10° N
CARTOSAT-1 4.1 21:57:12 23° S 21:59:43 54° W 22:03:59 10° NNW
Terra 1.8 22:00:02 29° S 22:02:30 82° WSW 22:07:17 10° NNW
Cosmos 2322 Rocket 2.5 21:57:34 10° NNW 22:03:13 60° NE 22:06:13 28° SE
Cosmos 1933 Rocket 3.5 22:01:23 25° S 22:03:58 87° W 22:08:26 10° N
Okean 1 3.5 22:01:21 10° NNW 22:05:24 68° W 22:07:07 32° S
Cosmos 1238 Rocket 2.8 22:06:54 31° SW 22:08:01 51° WNW 22:10:55 10° N
Cosmos 1602 3.7 22:06:47 31° SSW 22:08:35 83° WNW 22:12:32 10° N
Cosmos 2100 Rocket 4.2 22:05:35 28° SSE 22:08:37 53° E 22:14:34 10° NNE
USA 234 3.8 22:06:06 25° SSE 22:09:34 44° SW 22:15:47 10° WNW
Cosmos 1437 Rocket 2.6 22:05:54 10° NNW 22:09:45 87° W 22:10:50 45° S
Cosmos 1605 Rocket 4.2 22:05:45 11° SSW 22:11:40 68° WNW 22:17:46 10° N
ERBS 4.3 22:10:06 10° WNW 22:13:03 28° N 22:15:59 10° NE
Cosmos 1869 Rocket 3.8 22:13:01 39° SE 22:14:09 50° E 22:18:29 10° NNE
SPOT 5 3.5 22:15:08 24° SSW 22:17:20 43° W 22:21:30 10° NNW
Cosmos 2360 Rocket 2.9 22:11:53 10° NNW 22:17:21 46° NE 22:20:19 25° ESE
MTI 4.3 22:15:55 10° NNE 22:18:29 42° ENE 22:18:29 42° ENE
JB-3 4.3 22:15:43 10° NNE 22:19:42 70° ESE 22:20:43 47° SSE
ATLAS 3B R/B 3.6 22:21:12 24° ESE 22:21:34 24° ESE 22:26:43 10° ENE
Meteor 1-19 Rocket 4.4 22:16:23 10° NNW 22:21:45 63° W 22:24:35 28° S
Cosmos 1703 Rocket 3.8 22:18:16 10° NNW 22:22:36 62° W 22:24:15 35° SSW
Iridium 4 Rocket 3.2 22:21:45 44° SE 22:22:51 59° E 22:27:00 10° N
Cosmos 2242 Rocket 4.3 22:18:36 10° NNW 22:22:53 46° W 22:24:58 26° SSW
Geosat 4.0 22:20:48 35° SE 22:22:56 75° ENE 22:27:59 10° NNW
Cosmos 2173 Rocket 4.0 22:21:11 31° SSE 22:24:09 64° E 22:30:12 10° NNE
Cosmos 1500 3.1 22:25:10 56° ESE 22:25:30 59° E 22:29:11 10° NNE
Cosmos 1980 Rocket 3.6 22:20:48 10° NW 22:25:39 30° WSW 22:28:51 18° SSW
Cosmos 405 Rocket 3.3 22:24:29 26° SW 22:26:15 50° WNW 22:29:54 10° N
SL-4 R/B 1.5 22:22:34 10° WSW 22:26:22 75° SSE 22:27:13 49° E
USA 238 DEB 3.6 22:21:30 10° SW 22:28:09 83° SE 22:35:09 10° NE
USA 238 3.6 22:21:37 10° SW 22:28:15 82° SE 22:35:15 10° NE
Cosmos 1763 Rocket 3.7 22:23:43 10° NNW 22:28:59 64° WSW 22:31:09 35° S
ALOS 2 4.0 22:27:44 23° E 22:29:04 27° ENE 22:32:47 10° N
Meteor 1-14 Rocket 4.4 22:29:24 23° SSW 22:33:11 79° WNW 22:39:10 10° N
Cosmos 1536 3.9 22:34:39 30° E 22:34:39 30° E 22:38:03 10° NNE
Cosmos 1666 3.5 22:37:32 35° E 22:37:32 35° E 22:40:45 10° NNE
Cosmos 2333 Rocket 3.5 22:32:29 10° NNW 22:37:41 33° NE 22:41:19 17° E
Meteor 1-13 Rocket 4.1 22:35:50 10° N 22:41:25 77° ENE 22:43:23 41° SSE
Cosmos 2016 Rocket 4.1 22:39:51 36° SSE 22:42:23 61° E 22:48:40 10° NNE
Meteor 1-5 Rocket 4.3 22:40:38 36° S 22:43:09 73° E 22:49:06 10° NNE
Lacrosse 4 Rocket 3.8 22:45:23 11° E 22:45:23 11° E 22:45:49 10° ENE
Cosmos 2061 Rocket 4.1 22:41:23 37° SSE 22:43:46 62° E 22:49:53 10° NNE
Okean 1-7 3.9 22:39:47 10° NNW 22:43:53 42° W 22:45:21 31° SW
MOS 1-B Rocket 3.8 22:39:03 10° NNE 22:44:46 64° ESE 22:46:44 40° SSE
Cosmos 2221 Rocket 3.6 22:41:05 10° N 22:45:34 74° ENE 22:46:29 54° SE
Cosmos 1459 Rocket 4.0 22:42:36 32° S 22:45:46 88° ESE 22:52:11 10° N
FALCON 9 DEB 3.6 22:46:08 10° WSW 22:48:49 50° WSW 22:48:49 50° WSW
Okean 3 3.4 22:45:25 10° NNW 22:49:44 84° W 22:50:31 59° S
Cosmos 1867 4.3 22:44:25 10° WSW 22:49:46 55° NW 22:55:10 10° NE
Cosmos 1733 Rocket 3.6 22:50:59 40° ESE 22:51:14 41° E 22:55:23 10° NNE
Cosmos 1066 Rocket 4.5 22:46:11 10° N 22:51:53 58° ENE 22:53:46 39° SE
SL-27 R/B 2.4 22:53:08 70° NNE 22:53:08 70° NNE 22:56:08 10° NNE
Thor Agena Rocket 3.7 22:50:59 10° NNE 22:55:59 55° ESE 22:56:59 47° SE
CENTAUR R/B 2.5 22:51:50 20° SSW 22:56:18 79° SE 23:03:33 10° NE
Cosmos 1850 Rocket 4.2 22:54:34 25° SW 22:57:40 70° WNW 23:02:57 10° NNE
Cosmos 967 Rocket 4.4 22:52:14 10° NW 22:58:40 82° SW 23:01:03 41° SSE
Meteor 2-4 Rocket 4.2 22:53:12 10° NNW 22:58:44 52° W 23:00:58 33° SSW
Cosmos 44 3.3 22:55:38 10° NW 23:00:29 70° SW 23:01:33 53° S
Cosmos 1802 Rocket 4.0 22:58:41 35° S 23:01:40 87° W 23:08:05 10° N
Spot 4 3.8 23:06:33 54° S 23:07:38 78° WSW 23:12:29 10° NNW
Cosmos 2346 Rocket 4.4 23:02:55 10° NNW 23:08:59 75° W 23:11:12 41° S
Cosmos 1378 3.8 23:08:57 10° N 23:12:29 45° ENE 23:12:29 45° ENE
USA 267 3.8 23:08:59 10° ENE 23:15:23 58° NNW 23:21:46 10° W
Cosmos 2233 Rocket 4.2 23:14:31 42° SSE 23:16:28 60° E 23:22:41 10° NNE
Cosmos 841 Rocket 4.1 23:16:00 10° NW 23:20:56 44° WSW 23:22:05 38° SW
Cosmos 540 Rocket 4.0 23:17:12 10° NW 23:22:07 44° WSW 23:23:10 39° SW
NOSS 3-2 (A) 4.1 23:17:10 10° WSW 23:23:00 56° NW 23:29:46 10° NE
SL-16 R/B 3.2 23:19:42 10° NW 23:24:44 33° WSW 23:26:08 29° SW
Lacrosse 5 2.7 23:20:14 10° WNW 23:24:41 35° SW 23:24:41 35° SW
Cosmos 2322 3.7 23:22:05 10° NNW 23:27:47 76° ENE 23:29:31 46° SE
Cosmos 1378 Rocket 3.5 23:23:55 10° N 23:28:24 74° E 23:28:49 68° SE
NOSS 3-2 (C) 3.7 23:23:11 12° SW 23:28:45 70° NW 23:35:35 10° NE
Cosmos 1833 4.3 23:28:44 51° SSE 23:29:42 58° ESE 23:35:16 10° NE
COSMOS 2487 3.7 23:32:14 33° NE 23:32:14 33° NE 23:34:27 10° NNE
Cosmos 2084 Rocket 3.4 23:35:30 66° WSW 23:36:01 80° NW 23:40:22 10° NE
Cosmos 2219 Rocket 2.4 23:30:38 10° NNW 23:36:19 64° ENE 23:38:19 40° ESE
Tsikada Rocket 4.2 23:31:18 10° NNW 23:37:37 65° W 23:39:45 42° SSW
Cosmos 2082 Rocket 4.5 23:33:50 10° W 23:38:15 23° NW 23:42:41 10° NNE
EO 1 Del DPAF 3.4 23:36:12 10° N 23:39:56 64° WNW 23:39:56 64° WNW
Terra 4.2 23:39:07 10° WSW 23:41:00 12° W 23:42:54 10° WNW
Cosmos 1975 Rocket 4.0 23:37:31 10° N 23:41:44 38° ENE 23:42:25 36° E
Cosmos 2333 4.2 23:36:22 10° NNW 23:42:13 87° WSW 23:43:44 52° SSE
Cosmos 1242 Rocket 3.4 23:43:08 10° NNW 23:46:08 42° WNW 23:46:08 42° WNW
Cosmos 2322 Rocket 3.4 23:42:09 10° NW 23:46:56 28° WSW 23:48:01 26° WSW
ERBS 3.9 23:46:54 10° NW 23:49:57 33° NNE 23:51:02 26° NE
Helios 1A 3.1 23:49:48 63° E 23:50:04 65° ENE 23:54:16 10° N
SL-16 R/B 4.5 23:47:26 10° NNW 23:51:39 21° NE 23:55:50 10° E
Cosmos 1486 Rocket 4.0 23:52:11 59° SSE 23:52:49 65° ESE 23:58:00 10° NNE
Meteor 1-11 Rocket 4.3 23:51:38 32° SW 23:53:54 50° WNW 23:59:31 10° N
Cosmos 1544 4.0 23:54:38 42° ENE 23:54:38 42° ENE 23:57:32 10° NNE
